Weather History for Seward, AK

Change the Weather History Date:

Monday, June 4, 2012

  Actual Average Record
Temperature  
Mean Temperature 48 °F -  
Max Temperature 53 °F 56 °F 73 °F (1997)
Min Temperature 41 °F 43 °F 35 °F (1961)
Degree Days  
Heating Degree Days 17    
Moisture  
Dew Point 42 °F    
Average Humidity 81    
Maximum Humidity 93    
Minimum Humidity 66    
Precipitation  
Precipitation 0.00 in - - ()
Sea Level Pressure  
Sea Level Pressure 30.08 in    
Wind  
Wind Speed 3 mph (South)    
Max Wind Speed 9 mph    
Max Gust Speed -    
Visibility 10 miles    
Events      
Averages and records for this station are not official NWS values.
T = Trace of Precipitation, MM = Missing Value Source: NWS Daily Summary

Daily Weather History Graph

Daily Weather History Graph

Search for Another Location

Airport:

Trip Planner

Search our weather history database for the weather conditions in past years. The results will help you decide how hot, cold, wet, or windy it might be!

Date:

Astronomy

Jun. 04, 2012 Rise Set
Actual Time 4:40 AM AKDT 11:12 PM AKDT
Civil Twilight 3:09 AM AKDT 12:45 AM AKDT
Nautical Twilight Sun does not rise Sun does not rise
Astronomical Twilight Sun does not rise Sun does not rise
Moon 11:42 PM AKDT (6/4) 5:04 AM AKDT (6/4)
Length of Visible Light 21h 35m
Length of Day
18h 32m
Full, 100% of the Moon is Illuminated
Jun 4
Full
Jun 11
Last Quarter
Jun 19
New
Jun 26
First Quarter
Jul 3
Full

Hourly Weather History & Observations

Time (AKDT) Temp. Windchill Dew Point Humidity Pressure Visibility Wind Dir Wind Speed Gust Speed Precip Events Conditions
12:53 AM 46.9 °F - 43.0 °F 86% 30.10 in 10.0 mi South 5.8 mph - N/A   Overcast
1:39 AM 46.4 °F - 42.8 °F 87% 30.10 in 10.0 mi Calm Calm - N/A   Overcast
1:53 AM 46.0 °F - 42.1 °F 86% 30.10 in 10.0 mi Calm Calm - N/A   Overcast
2:27 AM 46.4 °F - 42.8 °F 87% 30.10 in 10.0 mi Calm Calm - N/A   Overcast
2:53 AM 45.0 °F - 42.1 °F 90% 30.10 in 10.0 mi Calm Calm - N/A   Overcast
3:23 AM 44.6 °F - 42.8 °F 93% 30.10 in 10.0 mi Calm Calm - N/A   Overcast
3:30 AM 44.6 °F - 42.8 °F 93% 30.10 in 10.0 mi Calm Calm - N/A   Overcast
3:53 AM 45.0 °F - 41.0 °F 86% 30.10 in 10.0 mi Calm Calm - N/A   Overcast
4:26 AM 44.6 °F - 41.0 °F 87% 30.10 in 10.0 mi Calm Calm - N/A   Overcast
4:39 AM 44.6 °F - 41.0 °F 87% 30.10 in 10.0 mi Calm Calm - N/A   Overcast
4:53 AM 44.1 °F - 41.0 °F 89% 30.10 in 10.0 mi Calm Calm - N/A   Overcast
5:53 AM 44.1 °F - 41.0 °F 89% 30.09 in 10.0 mi Calm Calm - N/A   Overcast
6:53 AM 46.0 °F - 42.1 °F 86% 30.09 in 10.0 mi Calm Calm - N/A   Overcast
7:22 AM 46.4 °F - 41.0 °F 81% 30.09 in 10.0 mi Calm Calm - N/A   Overcast
7:53 AM 46.0 °F 44.8 °F 41.0 °F 83% 30.09 in 10.0 mi South 3.5 mph - N/A   Overcast
8:45 AM 46.4 °F - 42.8 °F 87% 30.09 in 10.0 mi Calm Calm - N/A   Overcast
8:53 AM 46.9 °F - 42.1 °F 83% 30.09 in 10.0 mi Calm Calm - N/A   Overcast
9:53 AM 48.0 °F - 43.0 °F 83% 30.09 in 10.0 mi Variable 4.6 mph - N/A   Overcast
10:53 AM 48.0 °F - 43.0 °F 83% 30.10 in 10.0 mi South 5.8 mph - N/A   Overcast
11:25 AM 48.2 °F - 42.8 °F 82% 30.10 in 10.0 mi South 6.9 mph - N/A   Overcast
11:53 AM 48.9 °F - 42.1 °F 77% 30.10 in 10.0 mi South 5.8 mph - N/A   Overcast
12:33 PM 48.2 °F - 41.0 °F 76% 30.10 in 10.0 mi South 6.9 mph - N/A   Overcast
12:53 PM 50.0 °F - 42.1 °F 74% 30.10 in 10.0 mi South 5.8 mph - N/A   Overcast
1:32 PM 50.0 °F - 41.0 °F 71% 30.10 in 10.0 mi SSE 6.9 mph - N/A   Overcast
1:53 PM 50.0 °F - 41.0 °F 71% 30.10 in 10.0 mi SSE 6.9 mph - N/A   Overcast
2:53 PM 50.0 °F - 42.1 °F 74% 30.09 in 10.0 mi SSE 6.9 mph - N/A   Overcast
3:53 PM 52.0 °F - 42.1 °F 69% 30.08 in 10.0 mi SSE 8.1 mph - N/A   Mostly Cloudy
4:53 PM 53.1 °F - 42.1 °F 66% 30.07 in 10.0 mi South 6.9 mph - N/A   Partly Cloudy
5:53 PM 52.0 °F - 42.1 °F 69% 30.06 in 10.0 mi SSW 9.2 mph - N/A   Clear
6:53 PM 52.0 °F - 43.0 °F 71% 30.05 in 10.0 mi South 5.8 mph - N/A   Clear
7:53 PM 51.1 °F - 42.1 °F 71% 30.04 in 10.0 mi South 8.1 mph - N/A   Clear
8:53 PM 48.9 °F - 39.9 °F 71% 30.03 in 10.0 mi South 3.5 mph - N/A   Clear
9:53 PM 48.0 °F - 39.9 °F 74% 30.03 in 10.0 mi Calm Calm - N/A   Clear
10:53 PM 43.0 °F 41.3 °F 37.9 °F 82% 30.02 in 10.0 mi North 3.5 mph - N/A   Clear
11:53 PM 41.0 °F 38.0 °F 37.0 °F 86% 30.01 in 10.0 mi NNW 4.6 mph - N/A   Clear